Location: Brno
(49.2000°N, 16.6330°E)
Time: 07:54:48
(UTC+02:00)

BREEZE M DEB (TANK) - Visible Passes

Search period start: 02 May 2016 00:00
Search period end: 12 May 2016 00:00
Orbit: 297 x 12028 km, 49.5° (Epoch: 30 April)

Date Brightness Start Highest point End Pass type
(mag) Time Alt. Az. Time Alt. Az. Time Alt. Az.
02 May 6.8 02:13:31 10° WNW 03:25:18 50° WSW 03:43:35 10° S visible
02 May 7.8 20:32:07 10° WSW 22:11:37 90° N 22:57:43 10° E visible
03 May 6.9 01:19:13 10° WNW 02:41:02 59° WSW 03:00:44 10° SSE visible
03 May 7.9 19:44:39 10° SW 21:17:59 89° SSE 22:12:28 10° E visible
04 May 7.0 00:25:13 10° WNW 01:55:47 68° SW 02:17:29 10° SSE visible
04 May 8.0 18:58:12 10° SW 20:24:07 85° SSE 21:26:52 10° E visible
04 May 7.1 23:31:52 10° WNW 01:09:24 76° SW 01:33:52 10° SE visible
05 May 7.0 04:33:30 10° NW 05:08:18 20° W 05:24:22 10° WSW visible
05 May 7.3 22:39:31 10° W 00:21:42 82° SSW 00:49:55 10° SE visible
06 May 6.9 03:38:10 10° NW 04:26:33 28° W 04:44:27 10° SW visible
06 May 7.4 21:48:21 10° W 23:32:30 87° SSW 00:05:38 10° ESE visible
07 May 6.8 02:43:38 10° NW 03:44:10 37° W 04:03:09 10° SSW visible
07 May 7.6 20:58:26 10° W 22:41:36 90° SSW 23:21:01 10° ESE visible
08 May 6.9 01:49:24 10° NW 03:01:03 46° WSW 03:21:03 10° S visible
08 May 7.7 20:09:44 10° WSW 21:48:57 89° N 22:36:02 10° E visible
09 May 6.9 00:55:24 10° WNW 02:17:03 55° WSW 02:38:24 10° S visible
09 May 7.9 19:22:07 10° WSW 20:54:51 90° S 21:50:42 10° E visible
10 May 7.0 00:01:48 10° WNW 01:32:03 64° SW 01:54:58 11° SSE visible
10 May 8.0 18:35:28 10° SW 20:00:13 87° SSE 21:04:58 10° E visible
10 May 7.1 23:08:51 10° WNW 00:45:54 72° SW 01:11:39 10° SE visible
11 May 7.1 04:10:15 10° NW 04:42:21 18° WNW 04:59:11 10° WSW visible
